Elefsis, Greece

10:46 AM EEST on March 28, 2017 (GMT +0300)
Elefsis Air Base

Weather History for LGEL - December, 2013

Change the Weather History Date:

Sunday, December 8, 2013

  Actual Average Record
Temperature  
Mean Temperature 45 °F -  
Max Temperature 53 °F 55 °F 71 °F (2010)
Min Temperature 37 °F 42 °F 37 °F (2001)
Degree Days  
Heating Degree Days 20    
Moisture  
Dew Point 25 °F    
Average Humidity 45    
Maximum Humidity 70    
Minimum Humidity 26    
Precipitation  
Precipitation 0.00 in - - ()
Sea Level Pressure  
Sea Level Pressure 30.37 in    
Wind  
Wind Speed 7 mph ()    
Max Wind Speed 14 mph    
Max Gust Speed -    
Visibility 6.2 miles    
Events      
Averages and records for this station are not official NWS values.
T = Trace of Precipitation, MM = Missing Value Source: Averaged Metar Reports

Daily Weather History Graph

Daily Weather History Graph

Search for Another Location

Airport or City:

Trip Planner

Search our weather history database for the weather conditions in past years. The results will help you decide how hot, cold, wet, or windy it might be!

Date:

Astronomy

Dec. 08, 2013 Rise Set
Actual Time 7:29 AM EET 5:05 PM EET
Civil Twilight 7:00 AM EET 5:35 PM EET
Nautical Twilight 6:27 AM EET 6:08 PM EET
Astronomical Twilight 5:55 AM EET 6:40 PM EET
Moon 11:43 AM EET (12/8) 11:29 PM EET (12/8)
Length of Visible Light 10h 35m
Length of Day
9h 36m
Waxing Crescent, 36% of the Moon is Illuminated
Dec 8
Waxing Crescent
Dec 9
First Quarter
Dec 17
Full
Dec 25
Last Quarter
Jan 1
New

Hourly Weather History & Observations

Time (EET) Temp. Windchill Dew Point Humidity Pressure Visibility Wind Dir Wind Speed Gust Speed Precip Events Conditions
12:50 AM 46.4 °F 41.5 °F 24.8 °F 43% 30.27 in 6.2 mi NNW 10.4 mph - N/A   Partly Cloudy
1:50 AM 46.4 °F 41.9 °F 26.6 °F 46% 30.27 in 6.2 mi NNW 9.2 mph - N/A   Partly Cloudy
2:50 AM 46.4 °F 41.9 °F 28.4 °F 50% 30.30 in 6.2 mi NNW 9.2 mph - N/A   Scattered Clouds
3:50 AM 44.6 °F 40.2 °F 30.2 °F 57% 30.30 in 6.2 mi NW 8.1 mph - N/A   Scattered Clouds
4:50 AM 44.6 °F 40.2 °F 28.4 °F 53% 30.30 in 6.2 mi NW 8.1 mph - N/A   Scattered Clouds
5:50 AM 44.6 °F 38.8 °F 26.6 °F 49% 30.33 in 6.2 mi NW 11.5 mph - N/A   Partly Cloudy
6:20 AM 44.6 °F 38.4 °F 26.6 °F 49% 30.33 in - NW 12.7 mph - N/A   Clear
6:50 AM 42.8 °F 38.6 °F 26.6 °F 53% 30.33 in - NW 6.9 mph - N/A   Clear
7:20 AM 44.6 °F 38.8 °F 24.8 °F 46% 30.33 in 6.2 mi NW 11.5 mph - N/A   Partly Cloudy
7:50 AM 44.6 °F 38.1 °F 23.0 °F 43% 30.33 in 6.2 mi NW 13.8 mph - N/A   Partly Cloudy
8:20 AM 44.6 °F 39.2 °F 23.0 °F 43% 30.36 in 6.2 mi NW 10.4 mph - N/A   Partly Cloudy
8:50 AM 46.4 °F 41.1 °F 24.8 °F 43% 30.36 in 6.2 mi NW 11.5 mph - N/A   Partly Cloudy
9:20 AM 46.4 °F 40.7 °F 24.8 °F 43% 30.36 in 6.2 mi NNW 12.7 mph - N/A   Partly Cloudy
9:50 AM 48.2 °F - 24.8 °F 40% 30.39 in - NNW 10.4 mph - N/A   Clear
10:20 AM 48.2 °F - 23.0 °F 37% 30.39 in - NNW 11.5 mph - N/A   Clear
10:50 AM 50.0 °F - 21.2 °F 32% 30.39 in - NNW 12.7 mph - N/A   Clear
11:20 AM 50.0 °F - 23.0 °F 35% 30.39 in - NNW 11.5 mph - N/A   Clear
11:50 AM 50.0 °F - 23.0 °F 35% 30.39 in - NNW 10.4 mph - N/A   Clear
12:20 PM 51.8 °F - 24.8 °F 35% 30.36 in - NNW 8.1 mph - N/A   Clear
12:50 PM 51.8 °F - 23.0 °F 33% 30.36 in - NNW 9.2 mph - N/A   Clear
1:20 PM 51.8 °F - 23.0 °F 33% 30.36 in - NW 9.2 mph - N/A   Clear
1:50 PM 53.6 °F - 23.0 °F 30% 30.36 in - NNW 8.1 mph - N/A   Clear
2:20 PM 53.6 °F - 21.2 °F 28% 30.36 in - NNW 6.9 mph - N/A   Clear
2:50 PM 53.6 °F - 21.2 °F 28% 30.36 in - NNW 9.2 mph - N/A   Clear
3:20 PM 53.6 °F - 21.2 °F 28% 30.36 in - NNW 10.4 mph - N/A   Clear
3:50 PM 53.6 °F - 19.4 °F 26% 30.36 in - NNW 4.6 mph - N/A   Clear
4:20 PM 51.8 °F - 21.2 °F 30% 30.36 in - Calm Calm - N/A   Clear
4:50 PM 50.0 °F - 21.2 °F 32% 30.36 in - Calm Calm - N/A   Clear
5:20 PM 48.2 °F - 21.2 °F 34% 30.36 in - Calm Calm - N/A   Clear
5:50 PM 46.4 °F - 21.2 °F 37% 30.36 in - Calm Calm - N/A   Clear
6:20 PM 44.6 °F - 24.8 °F 46% 30.39 in - Calm Calm - N/A   Clear
6:50 PM 41.0 °F - 28.4 °F 61% 30.39 in - Calm Calm - N/A   Clear
7:20 PM 39.2 °F 37.0 °F 26.6 °F 61% 30.39 in - North 3.5 mph - N/A   Clear
7:50 PM 37.4 °F 34.9 °F 28.4 °F 70% 30.42 in - NW 3.5 mph - N/A   Clear
8:20 PM 39.2 °F - 26.6 °F 61% 30.42 in - Calm Calm - N/A   Clear
8:50 PM 37.4 °F - 28.4 °F 70% 30.42 in - Calm Calm - N/A   Clear
9:20 PM 39.2 °F - 26.6 °F 61% 30.42 in - Calm Calm - N/A   Clear
9:50 PM 37.4 °F 34.9 °F 26.6 °F 65% 30.42 in - NNE 3.5 mph - N/A   Clear
10:20 PM 39.2 °F 35.0 °F 26.6 °F 61% 30.42 in - NNE 5.8 mph - N/A   Clear
10:50 PM 39.2 °F 35.9 °F 26.6 °F 61% 30.45 in - NNW 4.6 mph - N/A   Clear
11:50 PM 37.4 °F - 26.6 °F 65% 30.45 in - Calm Calm - N/A   Clear